Погода в Бракнелле

Великобритания     51°24′17″N   0°44′59″E
темп.,
°C
ветер,
м/с
пор.,
м/с
влажн.,
%
обл.,
%
осадки,
мм/ч
давл.,
гПа
погр.,
м
9 мая, вс
вс901:00+12ююз7168310 0.0 1000720
04:00+11ю6168918 0.0 998600
07:00+13ююз6148577 0.0 997711
10:00+16ююз81277100 0.0 9971079
13:00+14ююз61185100 0.1 997905
16:00+16ююз7118099 0.4 9961120
19:00+14юз4989100 1.3 995554
22:00+11ю3594100 0.0 996107
10 мая, пн
пн1001:00+9ююз41093100 0.2 996371
04:00+9ююз51295100 0.0 996495
07:00+10ююз71284100 0.1 997907
10:00+11ююз8127992 0.1 9991123
13:00+14ююз10146416 0.8 10011676
16:00+14ююз914625 0.1 10021706
19:00+12ююз612715 0.1 10041183
22:00+7ю389298 0.0 1006180
11 мая, вт
вт1101:00+6ю23948 0.0 100747
04:00+5юз12914 0.0 100610
07:00+8в24865 0.0 1007130
10:00+13ю576575 0.0 10071238
13:00+14ю7964100 0.7 10071537
16:00+13ю71065100 0.1 10071329
19:00+11ю71279100 0.3 10071193
22:00+8ю4109177 0.0 1008408
12 мая, ср
ср1201:00+10ююз6118190 0.0 1008741
04:00+9ююз4885100 0.1 1009649
07:00+10ююз5776100 0.1 1009854
10:00+11юз5773100 0.0 10101009
13:00+12зюз5770100 0.2 10101222
16:00+14юз566163 0.6 10101619
19:00+13ююз46695 0.7 1010459
22:00+7юз339076 0.0 101152
13 мая, чт
чт1301:00+5юз229259 0.0 101216
04:00+6сз118999 0.0 101111
07:00+7зсз2290100 0.3 1011121
10:00+9ссз3386100 0.3 1011474
13:00+9сз4492100 2.1 1010305
16:00+9сз3597100 0.6 1010242
19:00+8зсз349799 0.8 1010199
22:00+8з229893 0.0 101071